Date String (YYYY-MM-DD hh:mm:ss) UTC,Instrument flags,Ambient pressure (hPa),Sample flow (lpm),Bypass flow (lpm),Sample temperature (°C),Ambient temperature (°C),ASC tube jacket temperature (°C),LED temperature (°C),Box temperature (°C),Sample RH (%),Span deviation,Mass concentration (μg/m³),Mass concentration (μg/m³),Mass concentration (μg/m³)
DateTimeUTC,F1_M11,P_M11,Q1_M11,Q2_M11,T1_M11,T2_M11,T3_M11,T4_M11,T5_M11,U1_M11,ZSPAN_M11,X0_M11,X2_M11,X1_M11
2023-03-11 07:00:00,,0811.4,5.01,0.00,22.2,20.6,00.0,31.1,24.0,21.8,0000.0,0000.70,0000.30,0000.20
2023-03-11 07:01:00,,0811.3,5.02,0.00,22.2,20.6,00.0,31.1,24.0,21.7,0000.0,0000.73,0000.32,0000.22
2023-03-11 07:02:00,,0811.2,5.01,0.00,22.2,20.6,00.0,31.1,24.0,21.4,0000.0,0000.74,0000.33,0000.22
2023-03-11 07:03:00,,0811.2,4.99,0.00,22.2,20.6,00.0,31.0,23.9,21.3,0000.0,0000.72,0000.31,0000.22
2023-03-11 07:04:00,,0811.3,4.99,0.00,22.2,20.6,00.0,31.0,23.9,21.3,0000.0,0000.65,0000.29,0000.22
2023-03-11 07:05:00,,0811.3,4.99,0.00,22.2,20.6,00.0,31.0,23.9,21.2,0000.0,0000.61,0000.27,0000.21
2023-03-11 07:06:00,,0811.4,5.00,0.00,22.1,20.5,00.0,31.0,23.9,21.2,0000.0,0000.36,0000.26,0000.21
2023-03-11 07:07:00,,0811.5,4.99,0.00,22.1,20.5,00.0,31.0,23.9,21.1,0000.0,0000.37,0000.26,0000.21
2023-03-11 07:08:00,,0811.6,5.01,0.00,22.1,20.5,00.0,31.0,23.9,21.1,0000.0,0000.36,0000.25,0000.18
2023-03-11 07:09:00,,0811.5,5.00,0.00,22.1,20.6,00.0,31.0,23.9,21.0,0000.0,0000.34,0000.22,0000.16
2023-03-11 07:10:00,,0811.5,5.02,0.00,22.1,20.6,00.0,31.0,24.0,20.9,0000.0,0000.26,0000.18,0000.14
2023-03-11 07:11:00,,0811.5,5.00,0.00,22.1,20.6,00.0,31.0,23.9,20.8,0000.0,0000.25,0000.16,0000.12
2023-03-11 07:12:00,,0811.4,4.99,0.00,22.1,20.6,00.0,31.0,23.9,20.8,0000.0,0000.27,0000.15,0000.10
2023-03-11 07:13:00,,0811.3,5.00,0.00,22.1,20.6,00.0,30.9,23.9,19.8,0000.0,0000.33,0000.15,0000.10
2023-03-11 07:14:00,,0811.4,5.01,0.00,22.1,20.6,00.0,30.9,23.9,18.9,0000.0,0000.36,0000.16,0000.11
2023-03-11 07:15:00,,0811.5,4.99,0.00,22.1,20.5,00.0,30.9,23.8,19.5,0000.0,0000.37,0000.17,0000.11
2023-03-11 07:16:00,,0811.5,5.00,0.00,22.1,20.5,00.0,30.9,23.9,20.4,0000.0,0000.37,0000.16,0000.11
2023-03-11 07:17:00,,0811.4,4.99,0.00,22.1,20.5,00.0,30.9,23.9,20.6,0000.0,0000.38,0000.17,0000.11
2023-03-11 07:18:00,,0811.4,5.00,0.00,22.1,20.5,00.0,30.9,23.9,20.5,0000.0,0000.39,0000.18,0000.12
2023-03-11 07:19:00,,0811.3,5.00,0.00,22.1,20.5,00.0,30.9,23.9,20.7,0000.0,0000.39,0000.18,0000.12
2023-03-11 07:20:00,,0811.3,4.99,0.00,22.1,20.6,00.0,30.9,24.0,19.2,0000.0,0000.42,0000.20,0000.13
2023-03-11 07:21:00,,0811.4,4.99,0.00,22.1,20.6,00.0,30.9,24.0,19.0,0000.0,0000.42,0000.20,0000.14
2023-03-11 07:22:00,,0811.4,5.01,0.00,22.1,20.6,00.0,30.9,24.0,19.6,0000.0,0000.39,0000.19,0000.14
2023-03-11 07:23:00,,0811.3,4.99,0.00,22.1,20.6,00.0,30.9,24.0,20.0,0000.0,0000.34,0000.19,0000.14
2023-03-11 07:24:00,,0811.4,5.00,0.00,22.1,20.6,00.0,30.9,23.9,19.7,0000.0,0000.28,0000.18,0000.14
2023-03-11 07:25:00,,0811.3,4.99,0.00,22.1,20.6,00.0,30.9,23.9,19.2,0000.0,0001.29,0000.17,0000.14
2023-03-11 07:26:00,,0811.4,4.99,0.00,22.1,20.6,00.0,30.9,23.9,19.2,0000.0,0002.06,0000.17,0000.14
2023-03-11 07:27:00,,0811.5,5.01,0.00,22.1,20.6,00.0,30.9,24.0,19.6,0000.0,0002.06,0000.17,0000.14
2023-03-11 07:28:00,,0811.4,5.00,0.00,22.1,20.7,00.0,30.9,24.0,19.3,0000.0,0002.07,0000.17,0000.14
2023-03-11 07:29:00,,0811.4,5.02,0.00,22.2,20.7,00.0,30.9,24.0,19.1,0000.0,0002.06,0000.17,0000.14
2023-03-11 07:30:00,,0811.5,5.01,0.00,22.2,20.6,00.0,30.9,24.0,19.1,0000.0,0002.07,0000.17,0000.14
2023-03-11 07:31:00,,0811.5,5.01,0.00,22.2,20.6,00.0,30.9,24.0,19.1,0000.0,0002.08,0000.18,0000.14
2023-03-11 07:32:00,,0811.4,4.99,0.00,22.2,20.7,00.0,30.9,24.0,19.0,0000.0,0002.07,0000.18,0000.14
2023-03-11 07:33:00,,0811.5,5.01,0.00,22.2,20.6,00.0,30.9,24.0,19.0,0000.0,0002.20,0000.18,0000.14
2023-03-11 07:34:00,,0811.5,5.00,0.00,22.2,20.7,00.0,30.9,24.0,19.0,0000.0,0002.22,0000.19,0000.14
2023-03-11 07:35:00,,0811.6,5.00,0.00,22.2,20.7,00.0,30.9,24.0,18.9,0000.0,0002.22,0000.19,0000.14
2023-03-11 07:36:00,,0811.6,5.00,0.00,22.2,20.7,00.0,30.9,23.9,18.9,0000.0,0001.19,0000.21,0000.15
2023-03-11 07:37:00,,0811.6,5.00,0.00,22.2,20.7,00.0,30.9,24.0,18.9,0000.0,0000.44,0000.21,0000.15
2023-03-11 07:38:00,,0811.6,4.99,0.00,22.2,20.7,00.0,30.9,24.0,18.7,0000.0,0000.57,0000.22,0000.15
2023-03-11 07:39:00,,0811.6,5.01,0.00,22.2,20.6,00.0,30.9,24.0,18.8,0000.0,0001.04,0000.23,0000.15
2023-03-11 07:40:00,,0811.7,4.99,0.00,22.2,20.7,00.0,30.9,24.0,18.8,0000.0,0001.09,0000.24,0000.15
2023-03-11 07:41:00,,0811.7,5.01,0.00,22.2,20.7,00.0,30.9,24.0,18.7,0000.0,0001.07,0000.24,0000.15
2023-03-11 07:42:00,,0811.6,5.00,0.00,22.2,20.7,00.0,30.9,24.0,18.6,0000.0,0001.10,0000.24,0000.15
2023-03-11 07:43:00,,0811.6,4.99,0.00,22.2,20.7,00.0,30.9,24.0,18.6,0000.0,0001.12,0000.25,0000.16
2023-03-11 07:44:00,,0811.6,5.00,0.00,22.2,20.7,00.0,30.9,24.0,18.5,0000.0,0000.99,0000.25,0000.16
2023-03-11 07:45:00,,0811.6,5.00,0.00,22.2,20.7,00.0,30.9,24.0,18.2,0000.0,0001.03,0000.27,0000.16
2023-03-11 07:46:00,,0811.6,5.00,0.00,22.2,20.7,00.0,30.9,24.0,18.1,0000.0,0001.09,0000.29,0000.17
2023-03-11 07:47:00,,0811.7,5.00,0.00,22.2,20.6,00.0,30.9,24.0,18.4,0000.0,0001.10,0000.28,0000.17
2023-03-11 07:48:00,,0811.7,4.99,0.00,22.2,20.6,00.0,30.9,24.0,18.3,0000.0,0001.13,0000.30,0000.18
2023-03-11 07:49:00,,0811.6,4.99,0.00,22.2,20.6,00.0,30.9,24.0,18.3,0000.0,0000.97,0000.31,0000.19
2023-03-11 07:50:00,,0811.6,4.99,0.00,22.2,20.7,00.0,30.9,24.0,18.2,0000.0,0000.53,0000.30,0000.19
2023-03-11 07:51:00,,0811.6,5.01,0.00,22.2,20.7,00.0,30.9,24.0,18.2,0000.0,0000.49,0000.29,0000.20
2023-03-11 07:52:00,,0811.7,4.98,0.00,22.2,20.7,00.0,30.9,24.0,18.3,0000.0,0000.49,0000.29,0000.20
2023-03-11 07:53:00,,0811.8,4.99,0.00,22.2,20.7,00.0,30.9,24.0,18.3,0000.0,0000.46,0000.29,0000.22
2023-03-11 07:54:00,,0811.7,5.00,0.00,22.2,20.7,00.0,30.9,24.0,18.4,0000.0,0000.48,0000.31,0000.22
2023-03-11 07:55:00,,0811.7,5.00,0.00,22.2,20.7,00.0,30.9,24.0,18.5,0000.0,0000.50,0000.31,0000.22
2023-03-11 07:56:00,,0811.7,5.01,0.00,22.2,20.7,00.0,30.9,23.9,18.6,0000.0,0000.46,0000.30,0000.22
2023-03-11 07:57:00,,0811.9,5.01,0.00,22.1,20.7,00.0,30.9,23.9,18.7,0000.0,0000.45,0000.30,0000.22
2023-03-11 07:58:00,,0811.8,4.99,0.00,22.1,20.7,00.0,30.9,23.9,18.7,0000.0,0000.44,0000.29,0000.22
2023-03-11 07:59:00,,0812.0,5.00,0.00,22.1,20.6,00.0,30.9,23.9,18.8,0000.0,0000.41,0000.28,0000.21
